| time (UTC) | temp C | wind direction | speed KPH | gust KPH | rain 1hr cm | rain 24hr cm | rain mn cm | humidity % | barometer mb |
| 20260506110524 | 15 | 205 | 0.0 | 0.0 | 0.00 | 0.00 | 0.00 | 95 | 1014.5 |
| 20260506110021 | 15 | 201 | 0.0 | 1.6 | 0.00 | 0.00 | 0.00 | 95 | 1014.4 |
| 20260506105517 | 15 | 205 | 0.0 | 0.0 | 0.00 | 0.00 | 0.00 | 95 | 1014.4 |
| 20260506105014 | 15 | 205 | 0.0 | 0.0 | 0.00 | 0.00 | 0.00 | 95 | 1014.3 |
| 20260506104512 | 15 | 205 | 0.0 | 0.0 | 0.00 | 0.00 | 0.00 | 95 | 1014.3 |
| 20260506104010 | 15 | 205 | 0.0 | 0.0 | 0.00 | 0.00 | 0.00 | 95 | 1014.3 |
| 20260506103507 | 15 | 206 | 0.0 | 0.0 | 0.00 | 0.00 | 0.00 | 95 | 1014.3 |
| 20260506103004 | 15 | 208 | 0.0 | 0.0 | 0.00 | 0.00 | 0.00 | 95 | 1014.4 |
| 20260506102502 | 15 | 213 | 0.0 | 0.0 | 0.00 | 0.00 | 0.00 | 95 | 1014.2 |
| 20260506101959 | 15 | 206 | 0.0 | 1.6 | 0.00 | 0.00 | 0.00 | 95 | 1014.2 |
| 20260506101455 | 15 | 204 | 0.0 | 0.0 | 0.00 | 0.00 | 0.00 | 95 | 1014.1 |
| 20260506100953 | 15 | 205 | 0.0 | 0.0 | 0.00 | 0.00 | 0.00 | 95 | 1014.2 |
| 20260506100451 | 15 | 205 | 0.0 | 0.0 | 0.00 | 0.00 | 0.00 | 95 | 1014.2 |
| 20260506095949 | 15 | 204 | 0.0 | 0.0 | 0.00 | 0.00 | 0.00 | 95 | 1013.9 |
| 20260506095447 | 15 | 204 | 0.0 | 0.0 | 0.00 | 0.00 | 0.00 | 94 | 1014.2 |
| 20260506094942 | 15 | 204 | 0.0 | 0.0 | 0.00 | 0.00 | 0.00 | 94 | 1014.2 |
| 20260506094441 | 15 | 204 | 0.0 | 0.0 | 0.00 | 0.00 | 0.00 | 94 | 1014.1 |
| 20260506093939 | 15 | 204 | 0.0 | 0.0 | 0.00 | 0.00 | 0.00 | 94 | 1014.2 |
| 20260506093437 | 15 | 218 | 0.0 | 0.0 | 0.00 | 0.00 | 0.00 | 94 | 1014.2 |
| 20260506092934 | 15 | 218 | 0.0 | 0.0 | 0.00 | 0.00 | 0.00 | 94 | 1014.3 |
| 20260506092432 | 15 | 218 | 0.0 | 0.0 | 0.00 | 0.00 | 0.00 | 94 | 1014.2 |
| 20260506091928 | 15 | 218 | 0.0 | 0.0 | 0.00 | 0.00 | 0.00 | 94 | 1014.3 |
| 20260506091427 | 15 | 219 | 0.0 | 0.0 | 0.00 | 0.00 | 0.00 | 94 | 1014.3 |
| 20260506090923 | 15 | 219 | 0.0 | 0.0 | 0.00 | 0.00 | 0.00 | 94 | 1014.2 |
| 20260506090421 | 15 | 219 | 0.0 | 0.0 | 0.00 | 0.00 | 0.00 | 94 | 1014.0 |
| 20260506085917 | 15 | 219 | 0.0 | 0.0 | 0.00 | 0.00 | 0.00 | 94 | 1014.3 |
| 20260506085414 | 15 | 219 | 0.0 | 0.0 | 0.00 | 0.00 | 0.00 | 94 | 1014.3 |
| 20260506084910 | 15 | 219 | 0.0 | 0.0 | 0.00 | 0.00 | 0.00 | 94 | 1014.4 |
| 20260506084408 | 15 | 220 | 0.0 | 0.0 | 0.00 | 0.00 | 0.00 | 94 | 1014.2 |
| 20260506083904 | 15 | 219 | 0.0 | 0.0 | 0.00 | 0.00 | 0.00 | 94 | 1014.4 |
| 20260506083401 | 15 | 218 | 0.0 | 0.0 | 0.00 | 0.00 | 0.00 | 94 | 1014.3 |
| 20260506082858 | 15 | 218 | 0.0 | 0.0 | 0.00 | 0.00 | 0.00 | 94 | 1014.4 |
| 20260506082355 | 15 | 218 | 0.0 | 0.0 | 0.00 | 0.00 | 0.00 | 94 | 1014.3 |
| 20260506081851 | 15 | 218 | 0.0 | 0.0 | 0.00 | 0.00 | 0.00 | 94 | 1014.2 |
| 20260506081349 | 15 | 219 | 0.0 | 0.0 | 0.00 | 0.00 | 0.00 | 94 | 1014.3 |
| 20260506080847 | 15 | 219 | 0.0 | 0.0 | 0.00 | 0.00 | 0.00 | 94 | 1014.3 |
| 20260506080343 | 15 | 219 | 0.0 | 0.0 | 0.00 | 0.00 | 0.00 | 94 | 1014.2 |
| 20260506073327 | 15 | 208 | 0.0 | 0.0 | 0.00 | 0.00 | 0.00 | 93 | 1013.9 |
| 20260506072824 | 15 | 208 | 0.0 | 0.0 | 0.00 | 0.00 | 0.00 | 93 | 1013.8 |
| 20260506072321 | 15 | 208 | 0.0 | 0.0 | 0.00 | 0.00 | 0.00 | 93 | 1014.0 |
| 20260506071819 | 15 | 208 | 0.0 | 0.0 | 0.00 | 0.00 | 0.00 | 93 | 1014.2 |
| 20260506071317 | 15 | 208 | 0.0 | 1.6 | 0.00 | 0.00 | 0.00 | 92 | 1014.1 |
| 20260506070814 | 15 | 213 | 0.0 | 1.6 | 0.00 | 0.00 | 0.00 | 92 | 1013.9 |
| 20260506070310 | 15 | 213 | 0.0 | 0.0 | 0.00 | 0.00 | 0.00 | 92 | 1014.0 |
| 20260506062241 | 15 | 215 | 1.6 | 3.2 | 0.00 | 0.00 | 0.00 | 91 | 1014.3 |
| 20260506061737 | 15 | 219 | 0.0 | 1.6 | 0.00 | 0.00 | 0.00 | 91 | 1014.1 |
| 20260506061236 | 15 | 212 | 1.6 | 3.2 | 0.00 | 0.00 | 0.00 | 91 | 1014.2 |
| 20260506060734 | 15 | 201 | 1.6 | 3.2 | 0.00 | 0.00 | 0.00 | 90 | 1014.1 |
| 20260506060231 | 15 | 196 | 0.0 | 1.6 | 0.00 | 0.00 | 0.00 | 90 | 1014.2 |
| 20260506051203 | 15 | 220 | 0.0 | 0.0 | 0.00 | 0.00 | 0.00 | 88 | 1014.8 |
| 20260506050701 | 15 | 224 | 0.0 | 0.0 | 0.00 | 0.00 | 0.00 | 88 | 1015.1 |
| 20260506050157 | 15 | 224 | 0.0 | 0.0 | 0.00 | 0.00 | 0.00 | 88 | 1015.2 |
| 20260506044649 | 15 | 228 | 0.0 | 0.0 | 0.00 | 0.00 | 0.00 | 87 | 1015.2 |
| 20260506044145 | 15 | 229 | 0.0 | 0.0 | 0.00 | 0.00 | 0.00 | 87 | 1015.5 |
| 20260506043642 | 15 | 229 | 0.0 | 0.0 | 0.00 | 0.00 | 0.00 | 87 | 1015.1 |
| 20260506043140 | 16 | 230 | 0.0 | 1.6 | 0.00 | 0.00 | 0.00 | 86 | 1015.1 |
| 20260506042639 | 16 | 227 | 0.0 | 0.0 | 0.00 | 0.00 | 0.00 | 86 | 1015.3 |
| 20260506042137 | 16 | 227 | 0.0 | 0.0 | 0.00 | 0.00 | 0.00 | 86 | 1015.3 |
| 20260506041635 | 16 | 226 | 0.0 | 0.0 | 0.00 | 0.00 | 0.00 | 86 | 1015.3 |
| 20260506041131 | 16 | 226 | 0.0 | 0.0 | 0.00 | 0.00 | 0.00 | 85 | 1015.1 |
| 20260506040629 | 16 | 226 | 0.0 | 0.0 | 0.00 | 0.00 | 0.00 | 85 | 1015.3 |
| 20260506040126 | 16 | 234 | 0.0 | 0.0 | 0.00 | 0.00 | 0.00 | 85 | 1015.4 |
| 20260506035623 | 16 | 237 | 0.0 | 0.0 | 0.00 | 0.00 | 0.00 | 85 | 1015.3 |
| 20260506035119 | 16 | 251 | 0.0 | 1.6 | 0.00 | 0.00 | 0.00 | 85 | 1015.3 |
| 20260506034617 | 16 | 262 | 1.6 | 1.6 | 0.00 | 0.00 | 0.00 | 85 | 1015.3 |
| 20260506034114 | 16 | 199 | 0.0 | 0.0 | 0.00 | 0.00 | 0.00 | 84 | 1014.9 |
| 20260506033611 | 16 | 208 | 0.0 | 0.0 | 0.00 | 0.00 | 0.00 | 84 | 1015.0 |
| 20260506033108 | 16 | 208 | 0.0 | 0.0 | 0.00 | 0.00 | 0.00 | 84 | 1015.1 |
| 20260506032605 | 16 | 197 | 0.0 | 1.6 | 0.00 | 0.00 | 0.00 | 84 | 1015.0 |
| 20260506032102 | 16 | 204 | 3.2 | 3.2 | 0.00 | 0.00 | 0.00 | 84 | 1015.2 |
| 20260506031559 | 16 | 203 | 1.6 | 3.2 | 0.00 | 0.00 | 0.00 | 84 | 1015.1 |
| 20260506031056 | 16 | 199 | 1.6 | 1.6 | 0.00 | 0.00 | 0.00 | 84 | 1015.0 |
| 20260506030555 | 16 | 195 | 0.0 | 1.6 | 0.00 | 0.00 | 0.00 | 84 | 1015.3 |
| 20260506030051 | 16 | 196 | 1.6 | 1.6 | 0.00 | 0.00 | 0.00 | 83 | 1015.3 |
| 20260506025548 | 16 | 195 | 1.6 | 1.6 | 0.00 | 0.00 | 0.00 | 83 | 1015.3 |
| 20260506025044 | 16 | 195 | 0.0 | 0.0 | 0.00 | 0.00 | 0.00 | 82 | 1015.6 |
| 20260506024541 | 16 | 195 | 0.0 | 0.0 | 0.00 | 0.00 | 0.00 | 82 | 1015.8 |
| 20260506024038 | 16 | 196 | 0.0 | 0.0 | 0.00 | 0.00 | 0.00 | 82 | 1015.6 |
| 20260506023534 | 16 | 195 | 0.0 | 0.0 | 0.00 | 0.00 | 0.00 | 81 | 1015.8 |
| 20260506023032 | 17 | 195 | 0.0 | 1.6 | 0.00 | 0.00 | 0.00 | 81 | 1015.7 |
| 20260506022529 | 17 | 195 | 0.0 | 0.0 | 0.00 | 0.00 | 0.00 | 80 | 1015.8 |
| 20260506022026 | 17 | 195 | 0.0 | 0.0 | 0.00 | 0.00 | 0.00 | 80 | 1015.7 |
| 20260506021524 | 17 | 195 | 0.0 | 1.6 | 0.00 | 0.00 | 0.00 | 80 | 1015.5 |
| 20260506021021 | 17 | 195 | 0.0 | 0.0 | 0.00 | 0.00 | 0.00 | 79 | 1015.6 |
| 20260506020518 | 17 | 195 | 0.0 | 0.0 | 0.00 | 0.00 | 0.00 | 79 | 1015.4 |
| 20260506020016 | 17 | 195 | 0.0 | 0.0 | 0.00 | 0.00 | 0.00 | 79 | 1015.6 |
| 20260506015513 | 17 | 194 | 0.0 | 0.0 | 0.00 | 0.00 | 0.00 | 78 | 1015.4 |
| 20260506015010 | 18 | 193 | 0.0 | 1.6 | 0.00 | 0.00 | 0.00 | 78 | 1015.1 |
| 20260506014507 | 18 | 193 | 0.0 | 1.6 | 0.00 | 0.00 | 0.00 | 77 | 1015.1 |
| 20260506014003 | 18 | 193 | 0.0 | 1.6 | 0.00 | 0.00 | 0.00 | 77 | 1015.2 |
| 20260506013501 | 18 | 193 | 0.0 | 1.6 | 0.00 | 0.00 | 0.00 | 76 | 1015.2 |
| 20260506012957 | 18 | 193 | 0.0 | 1.6 | 0.00 | 0.00 | 0.00 | 76 | 1015.1 |
| 20260506012453 | 18 | 202 | 1.6 | 1.6 | 0.00 | 0.00 | 0.00 | 75 | 1015.0 |
| 20260506011951 | 18 | 211 | 1.6 | 1.6 | 0.00 | 0.00 | 0.00 | 75 | 1015.2 |
| 20260506011448 | 18 | 213 | 0.0 | 0.0 | 0.00 | 0.00 | 0.00 | 74 | 1015.3 |
| 20260506010944 | 19 | 213 | 1.6 | 1.6 | 0.00 | 0.00 | 0.00 | 74 | 1015.5 |
| 20260506010444 | 19 | 189 | 0.0 | 1.6 | 0.00 | 0.00 | 0.00 | 73 | 1015.1 |
| 20260506005939 | 19 | 189 | 1.6 | 1.6 | 0.00 | 0.00 | 0.00 | 73 | 1015.0 |
| 20260506005437 | 20 | 187 | 1.6 | 1.6 | 0.00 | 0.00 | 0.00 | 72 | 1015.0 |
| 20260506004932 | 20 | 210 | 1.6 | 4.8 | 0.00 | 0.00 | 0.00 | 72 | 1015.1 |
| 20260506004431 | 20 | 202 | 1.6 | 4.8 | 0.00 | 0.00 | 0.00 | 71 | 1015.1 |
| 20260506003926 | 20 | 197 | 1.6 | 1.6 | 0.00 | 0.00 | 0.00 | 71 | 1015.2 |
| 20260506003423 | 20 | 199 | 1.6 | 3.2 | 0.00 | 0.00 | 0.00 | 71 | 1014.9 |
| 20260506002919 | 20 | 194 | 3.2 | 3.2 | 0.00 | 0.00 | 0.00 | 70 | 1015.0 |
| 20260506002415 | 20 | 194 | 3.2 | 4.8 | 0.00 | 0.00 | 0.00 | 70 | 1015.3 |
| 20260506001911 | 20 | 186 | 1.6 | 4.8 | 0.00 | 0.00 | 0.00 | 69 | 1015.1 |
| 20260506001408 | 20 | 193 | 4.8 | 8.0 | 0.00 | 0.00 | 0.00 | 69 | 1015.2 |
| 20260506000906 | 21 | 208 | 4.8 | 4.8 | 0.00 | 0.00 | 0.00 | 69 | 1015.1 |
| 20260506000403 | 21 | 199 | 3.2 | 8.0 | 0.00 | 0.00 | 0.00 | 68 | 1015.3 |
| 20260505235859 | 21 | 194 | 3.2 | 8.0 | 0.00 | 0.00 | 0.00 | 68 | 1015.1 |
| 20260505235358 | 21 | 194 | 8.0 | 17.7 | 0.00 | 0.00 | 0.00 | 68 | 1015.2 |
| 20260505234854 | 21 | 192 | 9.7 | 12.9 | 0.00 | 0.00 | 0.00 | 67 | 1014.8 |
| 20260505234352 | 21 | 199 | 8.0 | 9.7 | 0.00 | 0.00 | 0.00 | 67 | 1015.0 |
| 20260505233848 | 21 | 176 | 4.8 | 8.0 | 0.00 | 0.00 | 0.00 | 67 | 1014.9 |
| 20260505233346 | 21 | 204 | 6.4 | 14.5 | 0.00 | 0.00 | 0.00 | 66 | 1015.2 |
| 20260505232844 | 21 | 192 | 6.4 | 14.5 | 0.00 | 0.00 | 0.00 | 66 | 1015.1 |
| 20260505232342 | 21 | 220 | 11.3 | 17.7 | 0.00 | 0.00 | 0.00 | 66 | 1015.1 |
| 20260505231838 | 21 | 211 | 11.3 | 14.5 | 0.00 | 0.00 | 0.00 | 66 | 1014.9 |
| 20260505231335 | 21 | 188 | 9.7 | 11.3 | 0.00 | 0.00 | 0.00 | 65 | 1015.1 |
| 20260505230833 | 21 | 195 | 3.2 | 8.0 | 0.00 | 0.00 | 0.00 | 65 | 1015.1 |
| 20260505230330 | 21 | 199 | 8.0 | 14.5 | 0.00 | 0.00 | 0.00 | 65 | 1014.9 |
| 20260505225827 | 22 | 213 | 12.9 | 20.9 | 0.00 | 0.00 | 0.00 | 64 | 1015.1 |
| 20260505225325 | 22 | 218 | 3.2 | 29.0 | 0.00 | 0.00 | 0.00 | 64 | 1015.1 |
| 20260505224819 | 22 | 211 | 4.8 | 11.3 | 0.00 | 0.00 | 0.00 | 63 | 1015.0 |
| 20260505224317 | 22 | 184 | 4.8 | 12.9 | 0.00 | 0.00 | 0.00 | 63 | 1014.9 |
| 20260505223814 | 22 | 196 | 8.0 | 20.9 | 0.00 | 0.00 | 0.00 | 63 | 1015.1 |
| 20260505223311 | 22 | 171 | 6.4 | 14.5 | 0.00 | 0.00 | 0.00 | 63 | 1015.2 |
| 20260505222807 | 22 | 206 | 9.7 | 12.9 | 0.00 | 0.00 | 0.00 | 64 | 1015.2 |
| 20260505222305 | 22 | 220 | 6.4 | 24.1 | 0.00 | 0.00 | 0.00 | 63 | 1015.4 |
| 20260505221800 | 22 | 208 | 11.3 | 24.1 | 0.00 | 0.00 | 0.00 | 62 | 1015.0 |
| 20260505221257 | 22 | 212 | 8.0 | 12.9 | 0.00 | 0.00 | 0.00 | 62 | 1015.1 |
| 20260505220754 | 22 | 191 | 9.7 | 12.9 | 0.00 | 0.00 | 0.00 | 63 | 1015.2 |
| 20260505220251 | 22 | 204 | 6.4 | 16.1 | 0.00 | 0.00 | 0.00 | 63 | 1015.6 |
| 20260505215749 | 22 | 199 | 11.3 | 14.5 | 0.00 | 0.00 | 0.00 | 63 | 1015.2 |
| 20260505215247 | 22 | 210 | 9.7 | 16.1 | 0.00 | 0.00 | 0.00 | 63 | 1015.3 |
| 20260505214744 | 22 | 146 | 9.7 | 20.9 | 0.00 | 0.00 | 0.00 | 63 | 1015.2 |
| 20260505214242 | 22 | 205 | 11.3 | 20.9 | 0.00 | 0.00 | 0.00 | 63 | 1015.4 |
| 20260505213739 | 22 | 201 | 14.5 | 16.1 | 0.00 | 0.00 | 0.00 | 63 | 1015.5 |
| 20260505213236 | 22 | 179 | 16.1 | 17.7 | 0.00 | 0.00 | 0.00 | 62 | 1015.4 |
| 20260505212732 | 22 | 252 | 12.9 | 22.5 | 0.00 | 0.00 | 0.00 | 62 | 1015.4 |
| 20260505212229 | 22 | 206 | 4.8 | 12.9 | 0.00 | 0.00 | 0.00 | 61 | 1015.2 |
| 20260505211726 | 22 | 187 | 8.0 | 12.9 | 0.00 | 0.00 | 0.00 | 63 | 1015.4 |
| 20260505211224 | 22 | 204 | 4.8 | 11.3 | 0.00 | 0.00 | 0.00 | 62 | 1014.9 |
| 20260505210720 | 23 | 231 | 4.8 | 20.9 | 0.00 | 0.00 | 0.00 | 61 | 1015.4 |
| 20260505210217 | 23 | 232 | 8.0 | 20.9 | 0.00 | 0.00 | 0.00 | 61 | 1015.1 |
| 20260505205714 | 23 | 182 | 8.0 | 11.3 | 0.00 | 0.00 | 0.00 | 62 | 1015.3 |
| 20260505205212 | 23 | 194 | 9.7 | 11.3 | 0.00 | 0.00 | 0.00 | 61 | 1015.1 |
| 20260505204708 | 23 | 187 | 14.5 | 22.5 | 0.00 | 0.00 | 0.00 | 62 | 1015.2 |
| 20260505204207 | 23 | 147 | 4.8 | 9.7 | 0.00 | 0.00 | 0.00 | 62 | 1015.2 |
| 20260505203704 | 23 | 175 | 11.3 | 16.1 | 0.00 | 0.00 | 0.00 | 62 | 1015.3 |
| 20260505203200 | 23 | 184 | 8.0 | 16.1 | 0.00 | 0.00 | 0.00 | 62 | 1015.5 |
| 20260505202656 | 23 | 238 | 8.0 | 20.9 | 0.00 | 0.00 | 0.00 | 62 | 1015.2 |
| 20260505202152 | 23 | 163 | 4.8 | 16.1 | 0.00 | 0.00 | 0.00 | 62 | 1015.3 |
| 20260505201648 | 23 | 213 | 6.4 | 17.7 | 0.00 | 0.00 | 0.00 | 62 | 1015.3 |
| 20260505201147 | 23 | 203 | 9.7 | 20.9 | 0.00 | 0.00 | 0.00 | 61 | 1015.5 |
| 20260505200645 | 23 | 115 | 9.7 | 20.9 | 0.00 | 0.00 | 0.00 | 61 | 1015.6 |
| 20260505200141 | 23 | 222 | 9.7 | 20.9 | 0.00 | 0.00 | 0.00 | 60 | 1015.6 |
| 20260505195637 | 23 | 191 | 9.7 | 14.5 | 0.00 | 0.00 | 0.00 | 60 | 1015.7 |
| 20260505195135 | 23 | 133 | 9.7 | 17.7 | 0.00 | 0.00 | 0.00 | 60 | 1015.5 |
| 20260505194632 | 23 | 214 | 17.7 | 20.9 | 0.00 | 0.00 | 0.00 | 60 | 1016.0 |
| 20260505194128 | 23 | 135 | 8.0 | 12.9 | 0.00 | 0.00 | 0.00 | 60 | 1016.0 |
| 20260505193624 | 23 | 171 | 4.8 | 16.1 | 0.00 | 0.00 | 0.00 | 60 | 1016.3 |
| 20260505193121 | 23 | 210 | 9.7 | 14.5 | 0.00 | 0.00 | 0.00 | 60 | 1016.1 |
| 20260505192620 | 23 | 182 | 8.0 | 11.3 | 0.00 | 0.00 | 0.00 | 60 | 1016.4 |
| 20260505192117 | 23 | 187 | 11.3 | 16.1 | 0.00 | 0.00 | 0.00 | 60 | 1016.6 |
| 20260505191616 | 23 | 127 | 8.0 | 17.7 | 0.00 | 0.00 | 0.00 | 60 | 1016.5 |
| 20260505191113 | 23 | 216 | 14.5 | 24.1 | 0.00 | 0.00 | 0.00 | 59 | 1016.7 |
| 20260505190608 | 24 | 206 | 16.1 | 20.9 | 0.00 | 0.00 | 0.00 | 59 | 1016.5 |
| 20260505190104 | 23 | 176 | 4.8 | 14.5 | 0.00 | 0.00 | 0.00 | 60 | 1016.4 |
| 20260505185601 | 23 | 207 | 12.9 | 16.1 | 0.00 | 0.00 | 0.00 | 61 | 1016.6 |
| 20260505185057 | 23 | 235 | 9.7 | 16.1 | 0.00 | 0.00 | 0.00 | 61 | 1016.7 |
| 20260505184554 | 23 | 185 | 8.0 | 14.5 | 0.00 | 0.00 | 0.00 | 60 | 1016.5 |
| 20260505184050 | 23 | 187 | 14.5 | 22.5 | 0.00 | 0.00 | 0.00 | 60 | 1016.5 |
| 20260505183542 | 23 | 193 | 8.0 | 27.4 | 0.00 | 0.00 | 0.00 | 59 | 1016.3 |
| 20260505183039 | 23 | 209 | 4.8 | 16.1 | 0.00 | 0.00 | 0.00 | 60 | 1016.3 |
| 20260505182535 | 23 | 188 | 6.4 | 16.1 | 0.00 | 0.00 | 0.00 | 60 | 1016.3 |
| 20260505182032 | 23 | 194 | 17.7 | 29.0 | 0.00 | 0.00 | 0.00 | 60 | 1016.4 |
| 20260505181529 | 23 | 204 | 16.1 | 24.1 | 0.00 | 0.00 | 0.00 | 60 | 1016.4 |
| 20260505181026 | 23 | 208 | 9.7 | 20.9 | 0.00 | 0.00 | 0.00 | 60 | 1016.4 |
| 20260505180521 | 23 | 247 | 14.5 | 17.7 | 0.00 | 0.00 | 0.00 | 59 | 1016.5 |
| 20260505180020 | 24 | 201 | 9.7 | 16.1 | 0.00 | 0.00 | 0.00 | 59 | 1016.4 |
| 20260505175515 | 24 | 163 | 6.4 | 17.7 | 0.00 | 0.00 | 0.00 | 59 | 1016.2 |
| 20260505175012 | 24 | 90 | 1.6 | 16.1 | 0.00 | 0.00 | 0.00 | 60 | 1016.1 |
| 20260505174509 | 24 | 168 | 11.3 | 14.5 | 0.00 | 0.00 | 0.00 | 60 | 1016.3 |
| 20260505174005 | 24 | 204 | 8.0 | 16.1 | 0.00 | 0.00 | 0.00 | 59 | 1016.1 |
| 20260505173501 | 24 | 158 | 8.0 | 16.1 | 0.00 | 0.00 | 0.00 | 58 | 1016.6 |
| 20260505172958 | 24 | 168 | 16.1 | 22.5 | 0.00 | 0.00 | 0.00 | 58 | 1016.8 |
| 20260505172457 | 24 | 224 | 11.3 | 17.7 | 0.00 | 0.00 | 0.00 | 58 | 1016.7 |
| 20260505171957 | 24 | 213 | 8.0 | 20.9 | 0.00 | 0.00 | 0.00 | 58 | 1016.7 |
| 20260505171453 | 24 | 131 | 4.8 | 16.1 | 0.00 | 0.00 | 0.00 | 58 | 1016.5 |
| 20260505170950 | 24 | 176 | 4.8 | 14.5 | 0.00 | 0.00 | 0.00 | 58 | 1016.7 |
| 20260505170447 | 25 | 211 | 12.9 | 16.1 | 0.00 | 0.00 | 0.00 | 58 | 1016.6 |
| 20260505165942 | 25 | 227 | 11.3 | 16.1 | 0.00 | 0.00 | 0.00 | 58 | 1016.7 |
| 20260505165438 | 24 | 191 | 9.7 | 16.1 | 0.00 | 0.00 | 0.00 | 59 | 1016.9 |
| 20260505164933 | 24 | 205 | 11.3 | 16.1 | 0.00 | 0.00 | 0.00 | 60 | 1016.9 |
| 20260505164431 | 24 | 164 | 8.0 | 14.5 | 0.00 | 0.00 | 0.00 | 60 | 1017.1 |
| 20260505163928 | 23 | 139 | 3.2 | 11.3 | 0.00 | 0.00 | 0.00 | 60 | 1017.0 |
| 20260505163427 | 23 | 180 | 4.8 | 11.3 | 0.00 | 0.00 | 0.00 | 60 | 1017.0 |
| 20260505162926 | 23 | 206 | 8.0 | 17.7 | 0.00 | 0.00 | 0.00 | 59 | 1017.1 |
| 20260505162421 | 23 | 184 | 4.8 | 16.1 | 0.00 | 0.00 | 0.00 | 59 | 1017.1 |
| 20260505161918 | 24 | 219 | 11.3 | 17.7 | 0.00 | 0.00 | 0.00 | 61 | 1017.1 |
| 20260505161415 | 23 | 189 | 11.3 | 20.9 | 0.00 | 0.00 | 0.00 | 61 | 1017.2 |
| 20260505160913 | 23 | 167 | 14.5 | 16.1 | 0.00 | 0.00 | 0.00 | 61 | 1017.1 |
| 20260505160410 | 23 | 180 | 8.0 | 16.1 | 0.00 | 0.00 | 0.00 | 61 | 1017.0 |
| 20260505153349 | 25 | 206 | 6.4 | 17.7 | 0.00 | 0.00 | 0.00 | 58 | 1017.2 |
| 20260505152846 | 24 | 207 | 9.7 | 14.5 | 0.00 | 0.00 | 0.00 | 59 | 1017.2 |
| 20260505152338 | 24 | 163 | 6.4 | 17.7 | 0.00 | 0.00 | 0.00 | 57 | 1017.0 |
| 20260505151837 | 24 | 152 | 8.0 | 14.5 | 0.00 | 0.00 | 0.00 | 58 | 1017.2 |
| 20260505151334 | 24 | 203 | 12.9 | 22.5 | 0.00 | 0.00 | 0.00 | 58 | 1017.1 |
| 20260505150831 | 24 | 166 | 9.7 | 24.1 | 0.00 | 0.00 | 0.00 | 59 | 1017.1 |
| 20260505150329 | 24 | 175 | 4.8 | 14.5 | 0.00 | 0.00 | 0.00 | 59 | 1017.0 |
| 20260505140252 | 23 | 204 | 11.3 | 12.9 | 0.00 | 0.00 | 0.00 | 63 | 1016.8 |
| 20260505130217 | 21 | 185 | 8.0 | 14.5 | 0.00 | 0.00 | 0.00 | 72 | 1016.4 |
| 20260505124706 | 18 | 204 | 4.8 | 8.0 | 0.00 | 0.00 | 0.00 | 87 | 1016.4 |
| 20260505124203 | 18 | 150 | 1.6 | 3.2 | 0.00 | 0.00 | 0.00 | 94 | 1016.4 |
| 20260505123659 | 17 | 158 | 0.0 | 3.2 | 0.00 | 0.00 | 0.00 | 96 | 1016.5 |
| 20260505123156 | 17 | 154 | 1.6 | 1.6 | 0.00 | 0.00 | 0.00 | 98 | 1016.4 |
| 20260505122653 | 16 | 173 | 1.6 | 4.8 | 0.00 | 0.00 | 0.00 | 98 | 1016.6 |
| 20260505122150 | 16 | 152 | 1.6 | 1.6 | 0.00 | 0.00 | 0.00 | 98 | 1016.8 |
| 20260505121646 | 15 | 152 | 1.6 | 1.6 | 0.00 | 0.00 | 0.00 | 97 | 1016.5 |
| 20260505121143 | 14 | 168 | 1.6 | 3.2 | 0.00 | 0.00 | 0.00 | 96 | 1016.4 |
| 20260505120639 | 14 | 143 | 0.0 | 0.0 | 0.00 | 0.00 | 0.00 | 95 | 1016.4 |
| 20260505120136 | 13 | 143 | 0.0 | 0.0 | 0.00 | 0.00 | 0.00 | 95 | 1016.3 |
| 20260505115629 | 13 | 144 | 0.0 | 0.0 | 0.00 | 0.00 | 0.00 | 95 | 1016.3 |
| 20260505115127 | 13 | 150 | 0.0 | 0.0 | 0.00 | 0.00 | 0.00 | 95 | 1016.0 |
| 20260505114624 | 13 | 152 | 0.0 | 0.0 | 0.00 | 0.00 | 0.00 | 95 | 1016.1 |
| 20260505114120 | 13 | 155 | 0.0 | 0.0 | 0.00 | 0.00 | 0.00 | 95 | 1016.1 |
| 20260505113617 | 13 | 159 | 0.0 | 0.0 | 0.00 | 0.00 | 0.00 | 94 | 1016.3 |
| 20260505113114 | 12 | 166 | 0.0 | 0.0 | 0.00 | 0.00 | 0.00 | 94 | 1016.2 |
| 20260505112610 | 12 | 176 | 0.0 | 0.0 | 0.00 | 0.00 | 0.00 | 94 | 1016.0 |
| 20260505112108 | 12 | 185 | 0.0 | 0.0 | 0.00 | 0.00 | 0.00 | 94 | 1015.9 |
| 20260505111602 | 12 | 207 | 0.0 | 0.0 | 0.00 | 0.00 | 0.00 | 94 | 1015.8 |
| 20260505111058 | 12 | 207 | 0.0 | 0.0 | 0.00 | 0.00 | 0.00 | 94 | 1015.9 |